Hourly Data Report for July 19, 2012

BAGOTVILLE A
QUEBEC

48°20'00.000" N
71°00'00.000" W
159.10 m
7060400
71727
YBG

Download Data

Hourly Data (July 2012)
Hourly Data Report for July 19, 2012
TIME
LST
Temp Definition
°C
Dew Point Definition
°C
Rel Hum Definition
%
Precip. Amount Definition
mm

Wind Dir Definition
10's deg

Wind Spd Definition
km/h
Visibility Definition
km
Stn Press Definition
kPa
Hmdx Definition


Wind Chill Definition


Weather Definition


00:00 11.6 7.1 74   30 7 24.1 99.49     Mostly Cloudy
01:00 11.4 7.5 77   34 6 24.1 99.47     Mostly Cloudy
02:00 10.2 7.1 81   27 11 24.1 99.44     Mainly Clear
03:00 11.0 7.7 80   28 13 24.1 99.45     Clear
04:00 10.2 7.7 84   28 15 40.2 99.50     Mainly Clear
05:00 10.2 8.2 87   28 15 40.2 99.56     Mainly Clear
06:00 11.5 8.5 82   29 17 40.2 99.57     Mainly Clear
07:00 13.0 8.2 73   31 17 40.2 99.60     Mainly Clear
08:00 14.2 8.1 67   29 15 40.2 99.62     Mostly Cloudy
09:00 14.4 7.7 64   30 24 40.2 99.63     Mostly Cloudy
10:00 13.8 8.5 70   29 22 40.2 99.64     Mostly Cloudy
11:00 16.5 6.5 52   28 26 40.2 99.64     Mostly Cloudy
12:00 17.0 6.7 51   28 24 40.2 99.63     Mostly Cloudy
13:00 18.0 8.0 52   29 28 40.2 99.62     Mostly Cloudy
14:00 17.5 7.8 53   30 24 40.2 99.63     Mostly Cloudy
15:00 19.4 8.0 48   29 30 40.2 99.60     Mostly Cloudy
16:00 18.6 8.8 53   29 26 40.2 99.62     Mostly Cloudy
17:00 19.0 8.6 51   29 28 40.2 99.63     Mostly Cloudy
18:00 19.0 7.6 48   29 19 40.2 99.64     Mainly Clear
19:00 17.5 8.8 57   27 17 40.2 99.68     Mainly Clear
20:00 15.6 9.1 65   28 15 40.2 99.72     Mainly Clear
21:00 15.0 7.9 62   28 17 24.1 99.78     Mainly Clear
22:00 14.2 8.8 70   27 17 24.1 99.81     Mainly Clear
23:00 14.5 9.3 71   27 17 24.1 99.84     Mainly Clear

Notes on Data Quality.

Legend

  • E = Estimated
  • M = Missing
  • NA = Not Available*
  • [empty] = Indicates an unobserved value
Date modified: